Weather History for Murcia Airport, Spain

Change the Weather History Date:

Thursday, April 24, 2014

  Actual Average Record
Temperature  
Mean Temperature 66 °F -  
Max Temperature 77 °F 70 °F 77 °F (2014)
Min Temperature 55 °F 57 °F 48 °F (2004)
Cooling Degree Days 1    
Growing Degree Days 16 (Base 50)    
Moisture  
Dew Point 55 °F    
Average Humidity 63    
Maximum Humidity 94    
Minimum Humidity 26    
Precipitation  
Precipitation 0.00 in 0.03 in - ()
Sea Level Pressure  
Sea Level Pressure 29.98 in    
Wind  
Wind Speed 7 mph ()    
Max Wind Speed 22 mph    
Max Gust Speed 33 mph    
Visibility 6.7 miles    
Events      
Averages and records for this station are not official NWS values.
T = Trace of Precipitation, MM = Missing Value Source: Averaged Metar Reports

Daily Weather History Graph

Daily Weather History Graph

Search for Another Location

Airport:

Trip Planner

Search our weather history database for the weather conditions in past years. The results will help you decide how hot, cold, wet, or windy it might be!

Date:

Astronomy

Apr. 24, 2014 Rise Set
Actual Time 7:16 AM CEST 8:47 PM CEST
Civil Twilight 6:48 AM CEST 9:14 PM CEST
Nautical Twilight 6:15 AM CEST 9:48 PM CEST
Astronomical Twilight 5:40 AM CEST 10:23 PM CEST
Moon 4:12 AM CEST (4/24) 3:51 PM CEST (4/24)
Length of Visible Light 14h 26m
Length of Day
13h 30m
Waning Crescent, 27% of the Moon is Illuminated
Apr 24
Waning Crescent
Apr 29
New
May 7
First Quarter
May 14
Full
May 21
Last Quarter

Hourly Weather History & Observations

Time (CEST) Temp. Dew Point Humidity Pressure Visibility Wind Dir Wind Speed Gust Speed Precip Events Conditions
7:00 AM 55.4 °F 53.6 °F 94% 30.06 in 3.1 mi West 3.5 mph - N/A   Mist
8:00 AM 57 °F 54 °F 86% 30.07 in 3 mi WNW 4.6 mph - -   Mist
8:00 AM 57.2 °F 55.4 °F 94% 30.06 in 3.1 mi NW 2.3 mph - N/A   Partly Cloudy
9:00 AM 60.8 °F 57.2 °F 88% 30.06 in 3.7 mi West 2.3 mph - N/A   Partly Cloudy
10:00 AM 64.4 °F 57.2 °F 77% 30.06 in 5.6 mi Variable 2.3 mph - N/A   Partly Cloudy
11:00 AM 67 °F 58 °F 66% 30.07 in 7 mi SE 5.8 mph - -   Scattered Clouds
11:00 AM 66.2 °F 59.0 °F 78% 30.06 in 6.2 mi SE 4.6 mph - N/A   Partly Cloudy
12:00 PM 68.0 °F 57.2 °F 68% 30.06 in 6.2 mi SE 3.5 mph - N/A   Partly Cloudy
1:00 PM 69.8 °F 59.0 °F 68% 30.04 in 6.2 mi ESE 4.6 mph - N/A   Partly Cloudy
2:00 PM 74 °F 60 °F 51% 30.01 in 19 mi SE 9.2 mph - -   Scattered Clouds
2:00 PM 71.6 °F 60.8 °F 69% 30.01 in 6.2 mi ESE 8.1 mph - N/A   Partly Cloudy
3:00 PM 75.2 °F 55.4 °F 50% 29.98 in 6.2 mi South 12.7 mph - N/A   Partly Cloudy
4:00 PM 75.2 °F 53.6 °F 47% 29.95 in 6.2 mi SSW 17.3 mph - N/A   Partly Cloudy
4:21 PM 75.2 °F 46.4 °F 36% 29.92 in 6.2 mi SW 20.7 mph 33.4 mph N/A   Partly Cloudy
5:00 PM 75 °F 47 °F 26% 29.92 in 22 mi SSW 21.9 mph - -   Scattered Clouds
5:00 PM 73.4 °F 46.4 °F 38% 29.92 in 6.2 mi SSW 19.6 mph - N/A   Partly Cloudy
6:00 PM 71.6 °F 53.6 °F 53% 29.89 in 6.2 mi SSW 19.6 mph - N/A   Partly Cloudy
7:00 PM 68.0 °F 57.2 °F 68% 29.89 in 6.2 mi SSW 13.8 mph - N/A   Partly Cloudy
8:00 PM 68 °F 57 °F 60% 29.88 in 12 mi SSW 16.1 mph - -   Scattered Clouds
8:00 PM 66.2 °F 57.2 °F 73% 29.86 in 6.2 mi SSW 13.8 mph - N/A   Partly Cloudy
9:00 PM 66.2 °F 57.2 °F 73% 29.89 in 6.2 mi WSW 3.5 mph - N/A   Partly Cloudy
10:00 PM 64.4 °F 57.2 °F 77% 29.89 in 6.2 mi West 3.5 mph - N/A   Partly Cloudy
11:00 PM 69 °F 47 °F 35% 29.94 in 11 mi NNW 8.1 mph - -   Scattered Clouds
11:00 PM 69.8 °F 42.8 °F 38% 29.92 in 6.2 mi NNW 5.8 mph - N/A   Partly Cloudy